Regional Weather Roundup
Issued by NWS

Home | Current Version | Previous Version | Graphics & Text | Print | Product List | Glossary On
Versions: 1 2 3 4 5 6 7 8 9 10 11 12 13 14 15 16 17 18 19 20 21 22 23 24 25 26 27 28 29 30 31 32 33 34 35 36 37 38 39 40 41 42 43 44 45 46 47 48 49 50
692
ASUS43 KTOP 282159
RWRKS

WEATHER ROUNDUP FOR KANSAS
NATIONAL WEATHER SERVICE GOODLAND KS
500 PM CDT THU APR 28 2016

NOTE:  "FAIR" INDICATES FEW OR NO CLOUDS BELOW 12,000 FEET WITH NO
SIGNIFICANT WEATHER AND/OR OBSTRUCTIONS TO VISIBILITY.

KSZ001>006-013>018-027>032-041>047-282300-
NORTHWEST KANSAS

CITY           SKY/WX    TMP DP  RH WIND       PRES   REMARKS
GOODLAND       CLOUDY    51  34  52 NE7       29.98F
HAYS           CLOUDY    57  37  47 NE8       29.98S
HILL CITY      SUNNY     56  40  55 NE7       29.99F
RUSSELL        CLOUDY    59  41  51 NE8       29.95F
$$

KSZ061>065-074>080-084>089-282300-
SOUTHWEST KANSAS

CITY           SKY/WX    TMP DP  RH WIND       PRES   REMARKS
DODGE CITY     SUNNY     60  36  40 E9        29.96F
ELKHART          N/A     63  39  41 E10         N/A
GARDEN CITY    CLOUDY    58  35  42 VRB6      29.95F
GREAT BEND     MOSUNNY   61  41  48 NE9       29.96F
LIBERAL        SUNNY     64  37  36 E10G17    29.92F
$$

KSZ066>073-081>083-090>101-282300-
SOUTHEAST KANSAS

CITY           SKY/WX    TMP DP  RH WIND       PRES   REMARKS
CHANUTE        SUNNY     68  46  45 N7        29.96F
COFFEYVILLE    MOSUNNY   69  47  45 CALM      29.96S
HUTCHINSON     CLOUDY    65  43  44 N10       29.96S
MEDICINE LODGE   N/A     67  42  40 E12       29.92F
NEWTON         PTSUNNY   63  43  48 NE8       29.98S
PARSONS        SUNNY     69  48  47 N6        29.97F
WICHITA INTL   PTSUNNY   68  45  43 NE8       29.94F
WICHITA JABRA  PTSUNNY   65  45  48 NE8       29.95F
WINFIELD       SUNNY     68  45  43 E7        29.95F
$$

KSZ007>012-019>026-033>040-048>060-102>105-282300-
NORTHEAST KANSAS

CITY           SKY/WX    TMP DP  RH WIND       PRES   REMARKS
CONCORDIA      CLOUDY    58  44  60 N9        29.99F
EMPORIA        SUNNY     63  45  51 VRB6      29.97S
LAWRENCE       MOSUNNY   61  47  59 NW7       29.99R
MANHATTAN      SUNNY     60  43  53 VRB6      29.99S
OLATHE IND     MOSUNNY   61  47  59 W12       29.99R
OLATHE EXE     MOSUNNY   59  47  64 NW3       29.98R
SALINA         MOSUNNY   61  44  53 N12       29.98F
TOPEKA BILLARD PTSUNNY   62  47  57 NW8       29.99S
TOPEKA FORBES  CLOUDY    61  46  57 NW10      29.98S
$$




USA.gov is the U.S. government's official web portal to all federal, state and local government web resources and services.